User: anonymous   Login
Location: Asheville, NC
(35.6000°N, 82.5500°W)
Time: 04:36:41
(UTC-05:00)
Language:

AO-91 - Orbit

View from above orbital plane
View from above orbital plane
View from above satellite
View from above satellite

Ground track
Ground track

The orbit data is extracted from the following two-line orbital elements,

1 43017U 17073E   18017.50911200 +.00000947 +00000-0 +79426-4 0  9990
2 43017 097.6975 315.0342 0261583 042.3162 319.7907 14.77843961008858
Epoch (UTC): 17 January 2018 12:13:07
Eccentricity: 0.0261583
inclination: 97.6975°
perigee height: 452 km
apogee height: 819 km
right ascension of ascending node: 315.0342°
argument of perigee: 42.3162°
revolutions per day: 14.77843961
mean anomaly at epoch: 319.7907°
orbit number at epoch: 885

The dashed part of the orbit path shows where the satellite is in the earth's shadow,  

DLR